TimeEDT,TemperatureF,Dew PointF,Humidity,Sea Level PressureIn,VisibilityMPH,Wind Direction,Wind SpeedMPH,Gust SpeedMPH,PrecipitationIn,Events,Conditions,WindDirDegrees,DateUTC
12:53 AM,69.1,66.0,90,29.98,5.0,SSW,6.9,-,N/A,,Clear,210,2013-07-10 04:53:00
1:53 AM,68.0,66.0,93,29.96,4.0,SSW,6.9,-,N/A,,Clear,200,2013-07-10 05:53:00
2:53 AM,68.0,66.0,93,29.95,3.0,SW,8.1,-,N/A,,Partly Cloudy,220,2013-07-10 06:53:00
3:00 AM,68.0,66.2,94,29.98,4.0,SW,8.1,-,N/A,,Mostly Cloudy,220,2013-07-10 07:00:00
3:09 AM,68.0,66.2,94,29.97,4.0,SW,6.9,-,N/A,,Mostly Cloudy,220,2013-07-10 07:09:00
3:46 AM,69.8,66.2,88,29.97,3.0,SSW,5.8,-,N/A,,Mostly Cloudy,200,2013-07-10 07:46:00
3:53 AM,69.1,66.0,90,29.94,3.0,SSW,8.1,-,N/A,,Overcast,200,2013-07-10 07:53:00
4:53 AM,69.1,66.9,93,29.93,3.0,South,4.6,-,N/A,,Overcast,190,2013-07-10 08:53:00
5:23 AM,69.8,66.2,88,29.96,3.0,SSW,6.9,-,N/A,,Overcast,200,2013-07-10 09:23:00
5:53 AM,69.1,66.9,93,29.93,2.0,South,6.9,-,N/A,,Overcast,190,2013-07-10 09:53:00
6:08 AM,69.8,66.2,88,29.95,2.0,SSW,6.9,-,N/A,,Overcast,200,2013-07-10 10:08:00
6:40 AM,69.8,66.2,88,29.95,2.0,South,5.8,-,N/A,,Scattered Clouds,180,2013-07-10 10:40:00
6:53 AM,70.0,66.9,90,29.92,2.0,Calm,Calm,-,N/A,,Scattered Clouds,0,2013-07-10 10:53:00
7:26 AM,71.6,68.0,88,29.94,3.0,SSW,4.6,-,N/A,,Mostly Cloudy,200,2013-07-10 11:26:00
7:53 AM,72.0,68.0,87,29.91,4.0,SSW,8.1,-,N/A,,Mostly Cloudy,210,2013-07-10 11:53:00
8:53 AM,72.0,68.0,87,29.91,5.0,SSW,6.9,-,N/A,,Overcast,210,2013-07-10 12:53:00
9:21 AM,73.4,68.0,83,29.94,5.0,SSW,6.9,-,N/A,,Haze,200,2013-07-10 13:21:00
9:53 AM,72.0,68.0,87,29.91,4.0,SW,8.1,-,0.00,Rain,Light Rain,220,2013-07-10 13:53:00
10:10 AM,71.6,68.0,88,29.94,3.0,SW,8.1,-,0.00,Rain,Light Rain,230,2013-07-10 14:10:00
10:35 AM,73.4,69.8,88,29.94,5.0,SW,8.1,-,0.00,,Overcast,230,2013-07-10 14:35:00
10:53 AM,73.0,69.1,87,29.91,5.0,WSW,8.1,-,0.00,,Overcast,240,2013-07-10 14:53:00
11:32 AM,71.6,69.8,94,29.93,4.0,SW,11.5,-,0.01,,Overcast,230,2013-07-10 15:32:00
11:53 AM,71.1,68.0,90,29.90,5.0,SW,13.8,20.7,0.01,,Overcast,220,2013-07-10 15:53:00
12:08 PM,71.6,68.0,88,29.93,2.5,SW,9.2,-,0.01,Rain,Light Rain,230,2013-07-10 16:08:00
12:17 PM,71.6,69.8,94,29.92,4.0,SW,8.1,17.3,0.02,Rain,Light Rain,230,2013-07-10 16:17:00
12:26 PM,71.6,69.8,94,29.92,7.0,SW,6.9,-,0.02,Rain,Light Rain,230,2013-07-10 16:26:00
12:53 PM,72.0,69.1,91,29.89,5.0,SW,10.4,-,0.02,Rain,Light Rain,220,2013-07-10 16:53:00
1:00 PM,71.6,69.8,94,29.92,5.0,SW,11.5,-,0.00,Rain,Light Rain,220,2013-07-10 17:00:00
1:14 PM,71.6,69.8,94,29.91,6.0,SW,9.2,-,0.00,Rain,Light Rain,230,2013-07-10 17:14:00
1:31 PM,73.4,69.8,88,29.90,9.0,WSW,10.4,17.3,0.00,Rain,Light Rain,240,2013-07-10 17:31:00
1:53 PM,73.0,68.0,84,29.87,10.0,SW,10.4,-,0.00,,Mostly Cloudy,220,2013-07-10 17:53:00
2:08 PM,73.4,69.8,88,29.89,10.0,WSW,9.2,-,N/A,,Scattered Clouds,240,2013-07-10 18:08:00
2:29 PM,73.4,68.0,83,29.88,10.0,SW,10.4,-,N/A,,Mostly Cloudy,230,2013-07-10 18:29:00
2:53 PM,75.9,68.0,76,29.85,10.0,SW,12.7,-,N/A,,Mostly Cloudy,220,2013-07-10 18:53:00
3:53 PM,77.0,68.0,74,29.83,10.0,WSW,11.5,-,N/A,,Overcast,240,2013-07-10 19:53:00
4:13 PM,78.8,69.8,74,29.86,10.0,SW,6.9,16.1,N/A,,Mostly Cloudy,230,2013-07-10 20:13:00
4:53 PM,79.0,69.1,72,29.81,10.0,SW,8.1,-,N/A,,Mostly Cloudy,230,2013-07-10 20:53:00
5:03 PM,80.6,69.8,70,29.85,10.0,SW,8.1,-,N/A,,Scattered Clouds,230,2013-07-10 21:03:00
5:53 PM,79.0,69.1,72,29.82,10.0,SW,8.1,-,N/A,,Partly Cloudy,220,2013-07-10 21:53:00
6:53 PM,78.1,69.1,74,29.82,10.0,SW,6.9,-,N/A,,Partly Cloudy,220,2013-07-10 22:53:00
7:53 PM,77.0,69.1,76,29.81,10.0,SSW,6.9,-,N/A,,Clear,200,2013-07-10 23:53:00
8:53 PM,75.0,68.0,79,29.83,10.0,SW,8.1,-,N/A,,Partly Cloudy,220,2013-07-11 00:53:00
9:53 PM,75.0,69.1,82,29.85,10.0,West,17.3,20.7,N/A,,Scattered Clouds,270,2013-07-11 01:53:00
10:53 PM,70.0,62.1,76,29.86,10.0,West,8.1,-,0.01,,Scattered Clouds,270,2013-07-11 02:53:00
11:53 PM,68.0,62.1,81,29.86,10.0,WSW,8.1,-,0.00,Rain,Light Rain,240,2013-07-11 03:53:00